Location: Lane
(33.5226°N, 79.8788°W)
Time: 06:53:23
(UTC+00:00)

Explorer 7 - Pass Details

Date: 09 October 2022
Orbit: 481 x 665 km, 50.3° (Epoch: 28 November)

Event Time Altitude Azimuth Distance (km) Brightness Sun altitude
Rises 11:27:57 0° 192° (SSW) 2,887 10.5 0.9°
Reaches altitude 10° 11:30:39 10° 176° (S) 2,014 9.9 1.4°
Maximum altitude 11:34:10 21° 127° (SE) 1,444 10.1 2.1°
Drops below altitude 10° 11:37:45 10° 78° (ENE) 2,073 11.3 2.9°
Sets 11:40:35 0° 63° (ENE) 2,998 11.6 3.5°
